Location: Boornzwaag over de Wielen
(52.9500°N, 5.7500°E)
Time: 11:00:35
(UTC+00:00)

Daily predictions for brighter satellites

Satellite Brightness Start Highest point End
(mag) Time Altitude Azimuth Time Altitude Azimuth Time Altitude Azimuth
Cosmos 2263 4.5 19:12:08 10° SW 19:17:45 77° WNW 19:23:24 10° NNE
Cosmos 2263 Rocket 4.1 19:14:16 10° NNW 19:18:12 19° NNE 19:22:07 10° ENE
CZ-4B R/B 3.5 19:13:29 10° S 19:19:07 75° WSW 19:24:42 10° NNW
CZ-4C R/B 4.3 19:17:45 10° NE 19:20:25 21° E 19:23:03 10° SE
Ariane Rocket 4.4 19:17:18 10° ESE 19:21:07 22° NE 19:24:57 10° N
Cosmos 1821 Rocket 4.0 19:15:45 10° N 19:21:59 89° ENE 19:28:06 10° S
NOSS 2-2 (C) 4.1 19:19:01 10° WSW 19:22:03 43° NW 19:25:16 10° NE
SL-27 R/B 3.2 19:20:11 10° NW 19:22:57 41° WSW 19:25:41 10° S
Genesis I 3.1 19:19:25 10° NW 19:23:02 71° NE 19:26:40 10° SE
Nadezhda 3 Rocket 4.2 19:17:42 10° SSE 19:23:36 51° E 19:29:35 10° NNE
BREEZE-M R/B 2.6 19:22:46 10° W 19:25:20 36° S 19:27:38 10° ESE
USA 186 2.4 19:22:35 10° S 19:25:32 54° WSW 19:28:31 10° NNW
USA 267 3.3 19:19:56 10° ENE 19:26:30 70° SSE 19:33:01 10° SW
SPOT 1/Viking Rocket 4.3 19:22:38 10° S 19:27:45 56° W 19:32:55 10° NNW
Okean O Rocket 1.7 19:27:20 10° SSE 19:31:42 80° WSW 19:36:08 10° NNW
Aureole 1 Rocket 4.4 19:30:36 10° NNE 19:32:13 14° NE 19:33:51 10° E
Cosmos 1486 Rocket 4.3 19:28:39 10° NNW 19:33:52 70° WSW 19:39:01 10° SSE
CZ-4 R/B 3.2 19:33:25 10° SSW 19:36:55 31° W 19:40:23 10° NNW
Cosmos 1536 Rocket 3.6 19:36:14 10° N 19:40:38 64° ENE 19:45:03 10° SSE
SJ 16-02 4.0 19:38:46 10° NW 19:41:39 18° W 19:44:32 10° SW
DELTA 2 DEB (DPAF) 4.0 19:40:44 10° NNE 19:45:00 88° WNW 19:49:14 10° SSW
Resurs 01 Rocket 2.2 19:42:11 10° S 19:46:31 58° W 19:50:56 10° NNW
IRS-1C Rocket 4.3 19:42:56 10° SE 19:48:05 58° ENE 19:53:17 10° N
CENTAUR R/B 3.7 19:41:21 10° NW 19:48:42 51° NNE 19:57:19 10° E
MOS 1 4.3 19:44:32 10° SSE 19:50:13 76° ENE 19:55:57 10° NNW
NOSS 3-1 (A) 3.2 19:47:34 10° SSW 19:52:29 56° SE 19:58:27 10° NE
ERS-1 Rocket 3.5 19:51:26 13° SE 19:55:42 45° ENE 20:00:28 10° N
SPOT 3 Rocket 4.3 19:55:09 14° SE 19:59:10 37° ENE 20:03:54 10° N
Cosmos 1934 Rocket 4.0 19:53:17 10° N 19:59:27 78° ENE 20:05:42 10° SSE
USA 229 DEB 4.2 19:56:21 10° S 20:01:41 32° ESE 20:07:29 10° ENE
USA 229 4.2 19:56:28 10° S 20:01:48 31° ESE 20:07:33 10° ENE
Cosmos 2151 Rocket 3.5 19:59:19 10° S 20:03:42 74° E 20:08:10 10° NNE
Cosmos 1339 Rocket 4.5 19:57:50 10° S 20:03:52 62° E 20:09:52 10° NNE
USA 234 4.2 19:58:58 10° SSE 20:05:01 39° SW 20:11:05 10° WNW
USA 281 3.5 19:59:57 10° SSE 20:06:29 67° WSW 20:13:04 10° NNW
ATLAS CENTAUR R/B 2.1 20:03:47 10° NW 20:07:17 37° NE 20:09:58 16° E
Cosmos 2227 Rocket 2.6 20:02:31 10° NNW 20:08:07 53° NE 20:12:21 17° SE
Iridium 2 3.0 20:08:59 10° N 20:11:57 86° W 20:14:16 15° S
NOSS 3-1 (C) 3.6 20:07:47 10° WSW 20:12:56 70° NW 20:19:20 10° NE
Cosmos 1980 Rocket 4.0 20:13:32 11° E 20:13:32 11° E 20:15:10 10° ENE
Cosmos 1892 Rocket 4.0 20:11:24 10° N 20:15:35 44° ENE 20:18:09 21° SE
SL-4 R/B 1.8 20:12:34 10° W 20:16:08 57° SSW 20:17:57 24° SE
Cosmos 371 Rocket 4.0 20:11:45 10° NW 20:16:23 50° WSW 20:21:00 10° S
Landsat 4 3.4 20:17:01 19° SSE 20:19:25 81° ENE 20:22:58 10° NNW
Cosmos 304 Rocket 4.3 20:15:35 10° NNW 20:20:15 55° WSW 20:24:31 12° S
MetOp-B 4.2 20:15:38 11° SSE 20:20:49 82° WSW 20:26:14 10° NNW
Cosmos 1697 Rocket 3.7 20:18:57 18° SE 20:21:41 26° ESE 20:26:17 10° NE
COSMOS 2455 2.9 20:17:32 10° NW 20:23:38 88° SW 20:27:59 20° SE
Okean 2 Rocket 3.3 20:21:18 10° SSW 20:25:48 75° WNW 20:30:19 10° N
ATLAS 3B R/B 2.9 20:19:13 10° SW 20:26:27 89° SE 20:34:12 10° NE
SWARM A 4.3 20:25:04 10° N 20:28:40 85° E 20:31:01 20° S
NOSS 8 (H) 4.3 20:26:51 10° NW 20:29:53 82° SW 20:31:30 30° SE
SPOT 5 3.3 20:26:04 12° S 20:31:02 72° WSW 20:36:17 10° NNW
MetOp-A 4.2 20:30:40 24° ESE 20:32:10 33° ENE 20:35:37 10° N
Cosmos 1898 Rocket 4.0 20:28:00 10° NNW 20:33:06 47° NE 20:36:04 23° ESE
Cosmos 405 Rocket 3.2 20:33:26 29° SE 20:34:38 38° E 20:38:06 10° NNE
Cosmos 2297 Rocket 2.5 20:30:55 10° NW 20:36:31 66° WSW 20:40:35 19° SSE
CZ-4C R/B 2.9 20:29:58 10° NW 20:36:47 86° NE 20:42:37 22° SE
BlueWalker 3 2.2 20:35:15 10° SW 20:38:53 43° SSE 20:40:36 26° E
Spot 2 Rocket 3.4 20:36:25 22° SSE 20:39:43 78° ENE 20:44:47 10° NNW
ARIANE 5 R/B 4.4 20:39:49 16° E 20:41:40 20° ENE 20:44:54 10° NNE
Terra 1.7 20:40:08 23° SSE 20:43:09 88° E 20:47:55 10° NNW
Cosmos 1656 3.5 20:39:03 10° SSW 20:44:36 77° ESE 20:50:07 10° NNE
Cosmos 1455 Rocket 3.2 20:46:46 28° SSE 20:48:51 55° E 20:53:08 10° NNE
Cosmos 332 Rocket 4.1 20:44:09 10° NNW 20:48:58 64° WSW 20:51:54 23° S
Cosmos 1459 Rocket 4.5 20:43:17 10° N 20:49:03 43° ENE 20:52:04 26° SE
Okean 1 Rocket 3.3 20:44:42 10° SSW 20:49:09 70° WNW 20:53:38 10° N
ATLAS 5 CENTAUR R/B 2.7 20:46:28 10° W 20:49:47 38° NNW 20:53:38 10° NE
Iridium 4 Rocket 4.0 20:44:33 10° S 20:50:08 73° W 20:56:01 10° N
USA 245 4.0 20:46:54 19° S 20:50:34 69° WSW 20:54:47 10° NNW
Cosmos 2219 3.4 20:45:55 10° NNW 20:51:34 63° NE 20:54:33 28° SE
Okean-O 4.5 20:49:45 10° SSW 20:53:30 27° W 20:57:17 10° NW
Helios 1B 4.5 20:52:54 10° NNE 20:57:13 71° ESE 20:59:33 26° S
Cosmos 1437 Rocket 2.8 20:54:51 10° NNW 20:58:46 78° WSW 21:00:22 35° S
Ariane Rocket 3.1 20:56:31 24° S 20:59:34 75° WSW 21:04:39 10° NNW
Cosmos 1763 Rocket 3.4 20:57:45 17° S 21:01:35 65° ESE 21:06:42 10° NNE
EP 1 4.4 20:59:55 10° NW 21:02:32 68° NE 21:02:36 68° NE
Cosmos 2263 Rocket 2.5 20:57:52 10° NNW 21:03:25 55° NE 21:06:06 29° ESE
Cosmos 1544 4.3 21:03:46 10° NNE 21:05:38 21° NE 21:05:38 21° NE
Cosmos 44 3.4 21:01:02 10° SSW 21:06:25 73° SE 21:11:42 10° NE
Okean O Rocket 4.5 21:07:15 10° WSW 21:08:45 12° W 21:10:16 10° WNW
Cosmos 990 Rocket 4.4 21:04:07 10° NNW 21:09:11 55° WSW 21:11:52 26° S
USA 267 3.5 21:03:03 10° ENE 21:09:34 70° NNW 21:16:05 10° W
Cosmos 2082 4.0 21:04:19 10° NNW 21:09:55 59° NE 21:12:29 32° ESE
ARGOS Delta rocket 4.1 21:08:36 29° S 21:11:27 87° WSW 21:16:58 10° NNW
Cosmos 2173 Rocket 4.1 21:07:37 10° N 21:14:01 66° ENE 21:17:01 32° SSE
NOSS 3-2 (A) 4.1 21:07:48 10° NW 21:14:48 72° NE 21:19:58 25° ESE
Aureole 1 Rocket 2.7 21:12:49 10° NW 21:15:43 47° WSW 21:15:56 46° SW
Meteor 2-3 Rocket 4.0 21:11:53 10° N 21:17:30 56° ENE 21:19:41 35° SE
Cosmos 540 Rocket 3.3 21:18:45 29° S 21:21:19 69° ESE 21:26:26 10° NNE
Cosmos 1606 3.8 21:23:40 29° ENE 21:23:40 29° ENE 21:26:15 10° NNE
Cosmos 2058 2.9 21:21:25 10° NNW 21:25:26 71° W 21:26:27 47° SSW
MOS 1 Rocket 3.2 21:25:21 42° S 21:26:44 70° WSW 21:31:09 10° NNW
Meteor 2-15 4.5 21:21:25 10° N 21:27:33 67° ENE 21:29:59 37° SE
Cosmos 1626 Rocket 3.5 21:23:39 10° N 21:28:05 79° ENE 21:29:06 53° SSE
Cosmos 372 Rocket 3.9 21:25:07 10° NNW 21:30:24 85° WSW 21:32:09 44° SSE
Cosmos 468 Rocket 3.9 21:31:31 30° SSW 21:34:10 81° ESE 21:39:26 10° NNE
ERS-1 Rocket 4.3 21:31:22 17° SSW 21:34:36 32° W 21:39:08 10° NNW
Cosmos 1802 Rocket 4.0 21:30:14 10° N 21:36:32 71° ENE 21:38:59 39° SSE
TIMED 4.4 21:33:00 10° NNW 21:37:21 89° NE 21:38:04 62° SSE
SPOT 3 Rocket 4.5 21:35:46 24° SSW 21:38:30 42° W 21:43:27 10° NNW
CENTAUR R/B 3.2 21:32:06 10° NW 21:40:09 80° SW 21:44:47 33° SE
SL-16 R/B 4.2 21:41:08 13° E 21:41:08 13° E 21:42:51 10° ENE
Landsat 5 3.6 21:37:40 10° NNE 21:41:56 73° WNW 21:43:12 43° SW
NOSS 3-1 (A) 4.3 21:38:17 10° W 21:43:30 47° NNW 21:49:55 10° NE
Cosmos 1869 3.3 21:43:56 60° ENE 21:43:56 60° ENE 21:47:29 10° NNE
Cosmos 2016 Rocket 4.0 21:37:42 10° N 21:43:49 68° ENE 21:45:55 42° SE
Cosmos 841 Rocket 3.6 21:43:35 49° SE 21:44:09 51° ESE 21:49:08 10° NNE
ATLAS CENTAUR R/B 2.0 21:41:34 10° NW 21:45:05 38° SW 21:45:05 38° SW
Intercosmos 25 3.6 21:42:37 10° NNW 21:47:35 64° W 21:48:13 54° SW
Cosmos 1844 Rocket 3.9 21:42:39 10° NNW 21:47:45 34° NE 21:50:31 22° E
Cosmos 1544 Rocket 3.4 21:49:27 66° S 21:50:02 87° ESE 21:54:24 10° NNE
Cosmos 2100 Rocket 4.1 21:45:09 10° NNW 21:51:31 72° W 21:54:16 36° S
Cosmos 2227 Rocket 3.3 21:46:52 10° NW 21:51:59 35° WSW 21:54:10 26° SSW
USA 229 DEB 3.7 21:45:44 10° SW 21:52:01 77° NW 21:59:03 10° NE
USA 229 3.7 21:45:50 10° SW 21:52:07 78° NW 21:59:09 10° NE
Cosmos 1727 Rocket 4.2 21:49:08 24° SSW 21:53:03 70° WNW 21:59:19 10° N
H-2A R/B 2.6 21:54:16 52° ENE 21:54:16 52° ENE 21:57:51 10° N
SL-4 R/B 3.9 21:51:46 10° W 21:52:47 15° WSW 21:52:47 15° WSW
Cosmos 292 Rocket 4.3 21:51:19 10° NW 21:55:53 48° WSW 21:56:52 41° SW
Cosmos 1980 Rocket 2.2 21:55:14 50° SSE 21:56:20 60° ESE 22:01:54 10° NE
Cosmos 967 Rocket 4.4 21:52:01 10° NW 21:58:32 88° SW 22:00:44 45° SE
Cosmos 1937 Rocket 3.9 21:57:18 10° NNW 22:02:30 56° WSW 22:03:46 44° SSW
Okean 1-7 Rocket 3.6 21:59:01 10° NNW 22:03:33 74° W 22:04:09 63° SSW
Cosmos 1000 Rocket 4.5 22:01:36 35° SSW 22:04:21 80° WNW 22:10:32 10° N
Cosmos 1697 Rocket 2.9 22:00:32 16° SW 22:05:11 69° NW 22:10:53 10° NNE
Cosmos 2151 4.0 22:02:42 10° N 22:06:34 33° ENE 22:06:35 33° ENE
Cosmos 2123 Rocket 3.9 22:05:46 45° S 22:07:52 79° E 22:14:14 10° NNE
CZ-2C R/B 3.7 22:05:43 10° NNE 22:10:29 69° ESE 22:10:47 67° SE
Cosmos 1602 Rocket 3.6 22:06:37 10° NNW 22:10:57 67° W 22:11:18 64° SW
Meteor 1-27 4.3 22:10:41 52° SE 22:11:28 57° E 22:16:55 10° NNE
Cosmos 1758 Rocket 3.8 22:07:13 10° NNW 22:11:37 60° W 22:12:06 56° SW
Cosmos 2228 2.9 22:14:51 76° WSW 22:15:00 77° WNW 22:19:13 10° N
BlueWalker 3 3.4 22:13:09 10° W 22:15:07 29° W 22:15:07 29° W
ARIANE 5 R/B 2.6 22:17:17 68° SW 22:17:37 72° WSW 22:22:08 10° NNW
ATLAS 3B R/B 4.0 22:11:00 10° W 22:18:03 44° NNW 22:25:28 10° NE
Terra 4.2 22:18:50 10° WSW 22:21:25 15° W 22:24:09 10° NW
CZ-4C R/B 3.9 22:18:40 10° WNW 22:25:03 34° WSW 22:27:43 28° SSW
Cosmos 1076 Rocket 4.4 22:22:14 10° N 22:26:09 37° ENE 22:26:09 37° ENE
Cosmos 2227 4.2 22:20:47 10° NNW 22:26:33 82° ENE 22:27:45 58° SE
Cosmos 2369 3.5 22:27:50 58° S 22:28:56 79° ESE 22:34:38 10° NNE
Cosmos 1606 Rocket 3.8 22:30:33 58° ENE 22:30:33 58° ENE 22:34:22 10° NNE
Cosmos 1825 Rocket 3.5 22:25:41 10° NNW 22:30:02 86° WNW 22:30:02 86° WNW
Cosmos 1666 3.5 22:26:47 10° N 22:29:23 44° NNE 22:29:23 44° NNE
NOSS 3-2 (C) 3.9 22:23:50 10° NW 22:31:00 89° NE 22:34:32 39° SE
Lacrosse 4 Rocket 3.0 22:33:42 23° ENE 22:33:42 23° ENE 22:35:27 10° NE
H-2A R/B 3.9 22:28:39 10° NE 22:30:48 19° ENE 22:30:48 19° ENE
Cosmos 1725 Rocket 4.2 22:27:15 10° NNW 22:33:20 60° W 22:35:10 43° SSW
Cosmos 2233 Rocket 3.9 22:27:36 10° NNW 22:33:48 83° W 22:35:19 54° S
ATLAS 5 CENTAUR R/B 4.0 22:31:46 10° NW 22:34:46 21° N 22:38:12 10° NE
Cosmos 2219 4.4 22:30:34 10° NW 22:35:21 29° WSW 22:36:27 27° SW
ALOS 2 2.8 22:35:59 62° ENE 22:35:59 62° ENE 22:40:18 10° N
Cosmos 2061 Rocket 4.1 22:33:50 10° NNW 22:40:15 70° W 22:42:00 49° SSW
Cosmos 1862 4.0 22:37:17 10° NNW 22:40:37 47° WNW 22:40:37 47° WNW
Cosmos 1447 Rocket 4.5 22:42:34 55° SE 22:43:39 64° E 22:49:44 10° NNE
Cosmos 1814 Rocket 4.0 22:45:04 61° ESE 22:45:04 61° ESE 22:50:03 10° NNE
Cosmos 2058 Rocket 4.0 22:47:28 37° ENE 22:47:28 37° ENE 22:50:50 10° NNE
Cosmos 2263 Rocket 3.1 22:42:08 10° NW 22:47:07 34° WSW 22:47:47 33° WSW
Cosmos 1271 Rocket 3.4 22:46:11 10° NNW 22:49:07 51° NNW 22:49:07 51° NNW
Cosmos 2360 Rocket 3.7 22:51:06 23° E 22:51:06 23° E 22:54:48 10° NE
SL-19 R/B 4.3 22:45:22 10° NNE 22:51:02 68° ESE 22:51:47 61° SSE
Cosmos 1500 4.3 22:47:44 10° NNW 22:50:09 37° NW 22:50:09 37° NW
USA 267 3.6 22:45:51 10° E 22:52:20 66° N 22:58:49 10° WNW
Cosmos 2084 Rocket 4.0 22:49:47 10° NW 22:53:29 47° NNE 22:53:29 47° NNE
Cosmos 1606 4.4 22:57:45 24° WNW 22:57:51 24° WNW 23:00:53 10° NNW
Cosmos 1891 Rocket 4.5 22:51:47 10° N 22:57:59 74° ENE 22:59:17 57° SE
Cosmos 1513 Rocket 4.5 22:52:19 10° N 22:58:25 70° ENE 22:59:38 55° SE
Cosmos 2278 Rocket 4.5 22:57:30 10° NNW 23:01:44 21° NNE 23:05:57 10° ENE
Lacrosse 5 3.7 23:05:57 18° E 23:05:57 18° E 23:07:37 10° ENE
Cosmos 2333 Rocket 3.6 23:03:47 24° E 23:03:47 24° E 23:07:44 10° NE
Cosmos 2322 Rocket 3.0 23:03:59 35° E 23:03:59 35° E 23:08:37 10° NE
Cosmos 2219 Rocket 4.1 23:05:42 16° E 23:05:42 16° E 23:08:33 10° ENE
Spot 4 4.2 23:09:21 51° W 23:09:21 51° W 23:14:02 10° NNW
Cosmos 1726 Rocket 3.7 23:10:52 66° NW 23:10:52 66° NW 23:14:51 10° N
Cosmos 1238 Rocket 3.9 23:19:41 38° N 23:19:41 38° N 23:22:10 10° N
Cosmos 1953 Rocket 4.3 23:15:26 10° NNW 23:19:07 44° WNW 23:19:07 44° WNW
Cosmos 1809 Rocket 4.4 23:21:05 61° SSE 23:22:04 74° E 23:28:16 10° NNE
Cosmos 1844 3.6 23:17:07 10° NNW 23:22:54 80° WSW 23:23:28 71° S
SL-16 R/B 2.1 23:22:57 68° SE 23:23:13 69° ESE 23:28:52 10° NE
CENTAUR R/B 4.3 23:23:22 10° WNW 23:30:14 29° WSW 23:31:56 27° SW
USA 238 DEB 3.8 23:23:31 10° NW 23:30:46 75° SW 23:32:58 50° SSE
USA 238 3.8 23:23:37 10° NW 23:30:52 75° SW 23:33:05 50° SSE
Cosmos 1125 Rocket 3.6 23:26:41 10° NNW 23:31:48 63° WSW 23:31:48 63° WSW
Cosmos 1844 Rocket 2.7 23:26:28 10° NW 23:32:01 62° WSW 23:32:08 62° WSW
Cosmos 1812 3.8 23:37:39 40° N 23:37:39 40° N 23:40:05 10° N
Cosmos 2084 4.1 23:38:04 48° N 23:38:04 48° N 23:41:18 10° NE
PSLV R/B 3.7 23:34:36 10° NNE 23:39:04 79° NE 23:39:04 79° NE
Cosmos 1943 Rocket 4.5 23:34:58 10° NNW 23:39:20 22° NNE 23:43:40 10° E
Cosmos 1980 Rocket 3.5 23:36:55 17° W 23:40:40 35° NW 23:45:52 10° NNE
Cosmos 158 Rocket 4.4 23:41:25 48° E 23:41:25 48° E 23:45:51 10° NE
Cosmos 1072 Rocket 4.5 23:35:00 10° NNW 23:41:23 74° W 23:42:32 60° SSW
Meteor 2-14 Rocket 4.3 23:41:04 64° S 23:42:06 90° ESE 23:48:18 10° NNE
Cosmos 2151 4.4 23:39:53 10° NNW 23:42:57 29° WNW 23:42:57 29° WNW
Cosmos 2278 3.8 23:44:40 54° WSW 23:45:50 69° NW 23:51:32 10° NNE
Timation 2 Rocket 3.9 23:40:43 10° NW 23:47:21 71° WSW 23:48:19 61° SSW
Cosmos 1816 Rocket 4.4 23:51:35 60° SSE 23:52:37 73° E 23:58:44 10° NNE
